STARLINK-33724, 63574

Orbit data source: Space-Track

STARLINK-33724, 63574 is a payload satellite in LEO that was launched on Mon, 14 Apr 2025 UTC via an FALCON 9 launch vehicle from the Air Force Eastern Test Range (AFETR). Payload-class satellites include a variety of spacecraft equipped with specific instruments for various scientific and technological missions. These include communications satellites like Starlink; space stations such as the ISS; scientific satellites like the Hubble; Earth observation satellites from companies like Planet Labs, Umbra, and HawkEye 360; GPS; miniature CubeSats for education and research; and military/defense satellites.

Loading next visibility...
Identifier
63574, 2025-076F
Orbit
LEO
Last TLE update
4 days ago
Origin
Manufacturer
SpaceX/Seattle
Mission
Operational spacecraft
Bus & Motor
STARLINK V2MO, Unknown motor
Mass
575 kg wet, ~530 kg dry
Launch date (UTC)
2025-04-14 (1 month ago)
Launch vehicle
FALCON 9
Launch site
Air Force Eastern Test Range (AFETR)
Object type
Payload
Rocket body
Debris
Shape & HBR
Unknown
Radar Cross Section
Large (>1 m²)

Expand to show TLE details & history

TLE from 4 days ago
0 STARLINK-33724
1 63574U 25076F   25136.87712536  .00135622  00000-0  81979-3 0  9997
2 63574  42.9944 199.0113 0002432 351.8944   8.1886 15.76441282  6421
Epoch: 2025-05-16T21:03Z
TLE epoch observation values (Epoch: 2025-05-16T21:03:03.631Z)
Latitude
Longitude
8.41967°
Altitude
338.686 km
Speed
7.708 km/s
True Right ascension
13h 16m 02s
True Declination
0° 00' 00"
Sunlit
Object was in full shadow at epoch
Visualization orbit readout
Latitude
-9.93317°
Longitude
-25.4577°
Altitude
337.863 km
Speed
7.708 km/s
Apparent Right ascension
11h 53m 24s
Apparent Declination
-25° 11' 43"
Sunlit
Object is in full shadow
Visualization observer readout
Local Sidereal Time
01:05:22
Azimuth
51.073° ENE
Elevation
-68.947°
Doppler factor
1
Orbital elements
Apogee altitude
344.155 km
Perigee altitude
340.886 km
Semi-major axis
6,720.657 km
Eccentricity
0.00024
Inclination
42.9944°
RAAN
199.0113°
Arg. of periapsis
351.8944°
True anomaly
Unknown
Mean anomaly
8.1886°
Eccentric anomaly
Unknown
Mean motion
3.93936 °/min
Orbital period
91.39 mins
BSTAR
0.00081979
Loading maneuver chart data...
Loading SW <> Apogee altitude chart data...
Loading historical data...
Loading historical data...
Loading historical data...
Loading historical data...
Loading historical data...
Loading historical data...
Loading historical data...

STARLINK-33724 Visibility forecast

Observer location: undefined°, undefined°

Span
Click to sort rows by Start time (UTC) header in descending order
Start Az.
Max El. time (UTC)
Max El. Az.
Max El.
End time (UTC)
End Az.
5 mins2025-05-21 06:09:34.146Z229.977° WSW2025-05-21 06:11:34.146Z180.878° SSW36.011°2025-05-21 06:14:34.146Z79.04° E
4 mins2025-05-21 10:57:34.146Z267.508° W2025-05-21 10:59:34.146Z178.268° S31.315°2025-05-21 11:01:34.146Z135.221° SSE
|